{"data":{"norad_id":45159,"intl_designator":"2020-008AE","name":"ONEWEB-0056","alt_names":[],"object_type":"PAYLOAD","status":"ACTIVE","operator":null,"country":"UK","launch_date":"2020-02-06","launch_site_code":"TYMSC","launch_vehicle":null,"mission":null,"orbit_class":"UNKNOWN","rcs_meters":null,"size_class":null,"mass_kg":null,"dimensions":null,"purposes":["comms"],"wikipedia_slug":null,"has_3d_model":false,"image_url":null,"decayed_at":null,"tle_current":{"epoch":"2026-05-25T03:31:50.767104Z","epoch_age_seconds":58998,"freshness":"FRESH","line1":"1 45159U 20008AE  26145.14711536  .00000299  00000+0  82056-3 0  9993","line2":"2 45159  87.8863  40.8461 0001706  88.3012 271.8311 13.10370815305162","mean_motion":13.10370815,"eccentricity":0.0001706,"inclination_deg":87.8863,"raan_deg":40.8461,"arg_perigee_deg":88.3012,"mean_anomaly_deg":271.8311,"bstar":0.00082056,"rev_number":30516,"period_min":109.89255739796,"perigee_km":1220.4283551013,"apogee_km":1223.0214279787,"semimajor_km":7599.86189154,"source":"CELESTRAK","updated_at":"2026-05-25T13:38:22.339303Z"}}}